When you browse on this site, cookies collect data to enhance your experience and personalize the content and advertising you see.
Visit our Privacy Policy to learn more. By continuing to use the site, you agree to this use of cookies and data.
  • In United Kingdom
  • List of Countries
  • For 7 days
  • Water Temperature
  • Weather Map
  • Weather Widgets
  • user-avatar
    Login

    Hourly Weather Apollonivka

    Today, 15 September, Sunday

    Time Temperature Precipitation Wind Pressure Humidity
    00:00 +9°C° 0 mm 2 mps 751 mmHg 78%
    01:00 +9°C° 0 mm 2 mps 751 mmHg 80%
    02:00 +9°C° 0 mm 2 mps 751 mmHg 82%
    03:00 +8°C° 0 mm 2 mps 751 mmHg 85%
    04:00 +8°C° 0 mm 2 mps 751 mmHg 88%
    05:00 +7°C° 0 mm 2 mps 751 mmHg 91%
    06:00 +9°C° 0 mm 2 mps 751 mmHg 85%
    07:00 +10°C° 0 mm 3 mps 751 mmHg 80%
    08:00 +11°C° 0 mm 3 mps 751 mmHg 75%
    09:00 +13°C° 0 mm 3 mps 750 mmHg 68%
    10:00 +14°C° 0 mm 3 mps 750 mmHg 62%
    11:00 +17°C° 0 mm 4 mps 749 mmHg 55%
    12:00 +17°C° 0 mm 4 mps 749 mmHg 53%
    13:00 +18°C° 0 mm 4 mps 748 mmHg 50%
    14:00 +17°C° 0 mm 5 mps 748 mmHg 48%
    15:00 +18°C° 0 mm 4 mps 747 mmHg 49%
    16:00 +18°C° 0 mm 4 mps 747 mmHg 51%
    17:00 +17°C° 0 mm 3 mps 746 mmHg 53%
    18:00 +16°C° 0 mm 3 mps 745 mmHg 54%
    19:00 +14°C° 0 mm 3 mps 745 mmHg 56%
    20:00 +13°C° 0 mm 4 mps 745 mmHg 58%
    21:00 +13°C° 0 mm 4 mps 744 mmHg 58%
    22:00 +12°C° 0 mm 4 mps 744 mmHg 59%
    23:00 +12°C° 0 mm 4 mps 743 mmHg 60%

    Tomorrow, 16 September, Monday

    Time Temperature Precipitation Wind Pressure Humidity
    00:00 +12°C° 0 mm 5 mps 743 mmHg 61%
    01:00 +12°C° 0 mm 5 mps 743 mmHg 62%
    02:00 +13°C° 0 mm 5 mps 742 mmHg 63%
    03:00 +12°C° 0 mm 5 mps 742 mmHg 66%
    04:00 +12°C° 0 mm 5 mps 742 mmHg 69%
    05:00 +12°C° 0 mm 5 mps 741 mmHg 73%
    06:00 +13°C° 0 mm 5 mps 741 mmHg 73%
    07:00 +13°C° 0 mm 5 mps 741 mmHg 73%
    08:00 +14°C° 0 mm 5 mps 741 mmHg 73%
    09:00 +15°C° 0 mm 6 mps 741 mmHg 70%
    10:00 +16°C° 0 mm 6 mps 741 mmHg 67%
    11:00 +17°C° 0 mm 7 mps 741 mmHg 64%
    12:00 +17°C° 0 mm 7 mps 741 mmHg 62%
    13:00 +17°C° 0 mm 6 mps 740 mmHg 61%
    14:00 +17°C° 0 mm 6 mps 740 mmHg 59%
    15:00 +16°C° 0.1 mm 6 mps 740 mmHg 66%
    16:00 +15°C° 0.1 mm 6 mps 740 mmHg 73%
    17:00 +13°C° 0.1 mm 5 mps 740 mmHg 80%
    18:00 +13°C° 0.1 mm 5 mps 740 mmHg 83%
    19:00 +12°C° 0.1 mm 5 mps 740 mmHg 86%
    20:00 +12°C° 0.1 mm 5 mps 740 mmHg 89%
    21:00 +11°C° 0 mm 4 mps 740 mmHg 92%
    22:00 +10°C° 0 mm 3 mps 739 mmHg 94%
    23:00 +10°C° 0 mm 3 mps 739 mmHg 97%

    Day after tomorrow, 17 September, Tuesday

    Time Temperature Precipitation Wind Pressure Humidity
    00:00 +9°C° 0 mm 3 mps 739 mmHg 97%
    01:00 +9°C° 0 mm 3 mps 739 mmHg 97%
    02:00 +8°C° 0 mm 2 mps 739 mmHg 97%
    03:00 +8°C° 0.1 mm 2 mps 738 mmHg 96%
    04:00 +9°C° 0.1 mm 2 mps 738 mmHg 96%
    05:00 +9°C° 0.1 mm 2 mps 738 mmHg 95%
    06:00 +9°C° 0.1 mm 3 mps 738 mmHg 93%
    07:00 +10°C° 0.1 mm 3 mps 738 mmHg 91%
    08:00 +10°C° 0.1 mm 4 mps 738 mmHg 89%
    09:00 +11°C° 0 mm 4 mps 738 mmHg 78%
    10:00 +13°C° 0 mm 5 mps 738 mmHg 67%
    11:00 +14°C° 0 mm 6 mps 738 mmHg 56%
    12:00 +14°C° 0 mm 6 mps 737 mmHg 54%
    13:00 +14°C° 0 mm 6 mps 737 mmHg 52%
    14:00 +15°C° 0 mm 6 mps 737 mmHg 49%
    15:00 +14°C° 0 mm 6 mps 736 mmHg 51%
    16:00 +14°C° 0 mm 5 mps 736 mmHg 53%
    17:00 +14°C° 0 mm 5 mps 736 mmHg 54%
    18:00 +12°C° 0 mm 5 mps 736 mmHg 59%
    19:00 +10°C° 0 mm 5 mps 736 mmHg 65%
    20:00 +9°C° 0 mm 5 mps 736 mmHg 70%
    21:00 +9°C° 0 mm 5 mps 736 mmHg 72%
    22:00 +8°C° 0 mm 5 mps 736 mmHg 74%
    23:00 +8°C° 0 mm 6 mps 735 mmHg 76%

    18 September, Wednesday

    Time Temperature Precipitation Wind Pressure Humidity
    00:00 +7°C° 0.1 mm 6 mps 735 mmHg 76%
    01:00 +7°C° 0.1 mm 6 mps 735 mmHg 76%
    02:00 +7°C° 0.1 mm 6 mps 735 mmHg 76%
    03:00 +5°C° 0 mm 6 mps 735 mmHg 78%
    04:00 +5°C° 0 mm 6 mps 736 mmHg 80%
    05:00 +4°C° 0 mm 6 mps 736 mmHg 82%
    06:00 +5°C° 0 mm 7 mps 736 mmHg 78%
    07:00 +5°C° 0 mm 8 mps 736 mmHg 74%
    08:00 +6°C° 0 mm 8 mps 737 mmHg 70%
    09:00 +6°C° 0 mm 9 mps 737 mmHg 68%
    10:00 +7°C° 0 mm 9 mps 738 mmHg 66%
    11:00 +8°C° 0 mm 9 mps 739 mmHg 64%
    12:00 +8°C° 0 mm 9 mps 739 mmHg 62%
    13:00 +9°C° 0 mm 8 mps 739 mmHg 61%
    14:00 +10°C° 0 mm 8 mps 740 mmHg 59%
    15:00 +10°C° 0 mm 7 mps 740 mmHg 60%
    16:00 +10°C° 0 mm 6 mps 740 mmHg 61%
    17:00 +10°C° 0 mm 6 mps 741 mmHg 61%
    18:00 +9°C° 0 mm 6 mps 741 mmHg 63%
    19:00 +8°C° 0 mm 5 mps 741 mmHg 64%
    20:00 +8°C° 0 mm 5 mps 742 mmHg 66%
    21:00 +7°C° 0 mm 5 mps 742 mmHg 68%
    22:00 +7°C° 0 mm 5 mps 742 mmHg 70%
    23:00 +6°C° 0 mm 5 mps 742 mmHg 72%

    19 September, Thursday

    Time Temperature Precipitation Wind Pressure Humidity
    00:00 +6°C° 0 mm 5 mps 742 mmHg 75%
    01:00 +6°C° 0 mm 5 mps 742 mmHg 78%
    02:00 +6°C° 0 mm 5 mps 742 mmHg 82%
    03:00 +6°C° 0 mm 5 mps 742 mmHg 81%
    04:00 +6°C° 0 mm 5 mps 742 mmHg 80%
    05:00 +6°C° 0 mm 5 mps 742 mmHg 79%
    06:00 +6°C° 0 mm 5 mps 742 mmHg 79%
    07:00 +6°C° 0 mm 5 mps 743 mmHg 79%
    08:00 +7°C° 0 mm 5 mps 743 mmHg 79%
    09:00 +8°C° 0 mm 5 mps 743 mmHg 72%
    10:00 +10°C° 0 mm 5 mps 743 mmHg 66%
    11:00 +12°C° 0 mm 5 mps 744 mmHg 59%
    12:00 +12°C° 0.4 mm 5 mps 743 mmHg 59%
    13:00 +13°C° 0.4 mm 5 mps 743 mmHg 60%
    14:00 +13°C° 0.4 mm 4 mps 743 mmHg 60%
    15:00 +12°C° 0.2 mm 4 mps 743 mmHg 63%
    16:00 +12°C° 0.2 mm 4 mps 743 mmHg 65%
    17:00 +11°C° 0.2 mm 3 mps 743 mmHg 68%
    18:00 +10°C° 0 mm 3 mps 743 mmHg 73%
    19:00 +8°C° 0 mm 2 mps 744 mmHg 78%
    20:00 +7°C° 0 mm 2 mps 744 mmHg 83%
    21:00 +6°C° 0 mm 2 mps 744 mmHg 85%
    22:00 +5°C° 0 mm 3 mps 744 mmHg 86%
    23:00 +4°C° 0 mm 3 mps 744 mmHg 87%

    20 September, Friday

    Time Temperature Precipitation Wind Pressure Humidity
    00:00 +4°C° 0 mm 3 mps 745 mmHg 89%
    01:00 +5°C° 0 mm 2 mps 745 mmHg 91%
    02:00 +4°C° 0 mm 2 mps 745 mmHg 94%
    03:00 +4°C° 0 mm 2 mps 745 mmHg 94%
    04:00 +4°C° 0 mm 2 mps 745 mmHg 95%
    05:00 +3°C° 0 mm 2 mps 745 mmHg 95%
    06:00 +3°C° 0 mm 3 mps 745 mmHg 90%
    07:00 +4°C° 0 mm 3 mps 745 mmHg 85%
    08:00 +7°C° 0 mm 3 mps 745 mmHg 80%
    09:00 +8°C° 0 mm 3 mps 746 mmHg 70%
    10:00 +10°C° 0 mm 4 mps 746 mmHg 60%
    11:00 +11°C° 0 mm 4 mps 746 mmHg 51%
    12:00 +12°C° 0 mm 4 mps 746 mmHg 51%
    13:00 +12°C° 0 mm 4 mps 746 mmHg 51%
    14:00 +12°C° 0 mm 4 mps 746 mmHg 51%
    15:00 +11°C° 0.2 mm 4 mps 746 mmHg 57%
    16:00 +10°C° 0.2 mm 4 mps 746 mmHg 64%
    17:00 +8°C° 0.2 mm 4 mps 746 mmHg 70%
    18:00 +7°C° 0 mm 4 mps 746 mmHg 77%
    19:00 +7°C° 0 mm 3 mps 747 mmHg 84%
    20:00 +4°C° 0 mm 3 mps 747 mmHg 91%
    21:00 +3°C° 0 mm 3 mps 747 mmHg 91%
    22:00 +3°C° 0 mm 3 mps 748 mmHg 91%
    23:00 +2°C° 0 mm 3 mps 748 mmHg 91%
    Show more